Time,TemperatureF,DewpointF,PressureIn,WindDirection,WindDirectionDegrees,WindSpeedMPH,WindSpeedGustMPH,Humidity,HourlyPrecipIn,Conditions,Clouds,dailyrainin,SolarRadiationWatts/m^2,SoftwareType,DateUTC
2013-01-26 00:09:00,43.2,37.4,29.86,SE,138,3.0,3.0,80,0.00,,,0.00,0,Wunderground v.1.15,2013-01-26 08:09:00,
2013-01-26 00:18:00,43.1,37.3,29.85,ESE,114,3.0,6.0,80,0.00,,,0.00,0,Wunderground v.1.15,2013-01-26 08:18:00,
2013-01-26 00:27:00,43.1,37.7,29.85,SE,144,2.0,3.0,81,0.00,,,0.00,0,Wunderground v.1.15,2013-01-26 08:27:00,
2013-01-26 00:42:00,43.2,37.8,29.85,ESE,110,3.0,3.0,81,0.00,,,0.00,0,Wunderground v.1.15,2013-01-26 08:42:00,
2013-01-26 00:48:00,43.3,37.9,29.85,ESE,114,3.0,6.0,81,0.00,,,0.00,0,Wunderground v.1.15,2013-01-26 08:48:00,
2013-01-26 00:58:00,43.3,38.5,29.85,SE,131,4.0,4.0,83,0.00,,,0.00,0,Wunderground v.1.15,2013-01-26 08:58:00,
2013-01-26 01:12:00,43.5,38.7,29.85,SSE,151,3.0,3.0,83,0.00,,,0.00,0,Wunderground v.1.15,2013-01-26 09:12:00,
2013-01-26 01:18:00,43.5,39.3,29.85,ESE,112,3.0,3.0,85,0.00,,,0.00,0,Wunderground v.1.15,2013-01-26 09:18:00,
2013-01-26 01:28:00,43.1,39.5,29.85,ESE,109,5.0,5.0,87,0.00,,,0.00,0,Wunderground v.1.15,2013-01-26 09:28:00,
2013-01-26 01:38:00,42.9,39.3,29.84,ESE,106,4.0,6.0,87,0.00,,,0.00,0,Wunderground v.1.15,2013-01-26 09:38:00,
2013-01-26 01:48:00,42.9,39.3,29.84,ESE,107,5.0,8.0,87,0.00,,,0.00,0,Wunderground v.1.15,2013-01-26 09:48:00,
2013-01-26 01:58:00,42.9,39.6,29.84,East,100,4.0,4.0,88,0.00,,,0.00,0,Wunderground v.1.15,2013-01-26 09:58:00,
2013-01-26 02:08:00,42.9,39.3,29.84,ESE,109,5.0,8.0,87,0.00,,,0.00,0,Wunderground v.1.15,2013-01-26 10:08:00,
2013-01-26 02:18:00,42.8,39.5,29.84,ESE,109,5.0,6.0,88,0.00,,,0.00,0,Wunderground v.1.15,2013-01-26 10:18:00,
2013-01-26 02:28:00,42.8,39.5,29.84,ESE,114,3.0,5.0,88,0.00,,,0.00,0,Wunderground v.1.15,2013-01-26 10:28:00,
2013-01-26 02:38:00,42.6,39.3,29.84,ESE,113,3.0,3.0,88,0.00,,,0.00,0,Wunderground v.1.15,2013-01-26 10:38:00,
2013-01-26 02:48:00,42.6,39.3,29.84,ESE,110,3.0,5.0,88,0.00,,,0.00,0,Wunderground v.1.15,2013-01-26 10:48:00,
2013-01-26 02:58:00,42.6,39.3,29.84,ESE,109,3.0,4.0,88,0.00,,,0.00,0,Wunderground v.1.15,2013-01-26 10:58:00,
2013-01-26 03:09:00,42.6,39.3,29.84,ESE,109,2.0,3.0,88,0.00,,,0.00,0,Wunderground v.1.15,2013-01-26 11:09:00,
2013-01-26 03:18:00,42.8,39.2,29.83,ESE,104,3.0,4.0,87,0.00,,,0.00,0,Wunderground v.1.15,2013-01-26 11:18:00,
2013-01-26 03:28:00,42.8,39.5,29.83,ESE,104,1.0,3.0,88,0.00,,,0.00,0,Wunderground v.1.15,2013-01-26 11:28:00,
2013-01-26 03:38:00,42.6,39.3,29.83,ESE,104,2.0,2.0,88,0.00,,,0.00,0,Wunderground v.1.15,2013-01-26 11:38:00,
2013-01-26 03:48:00,42.6,39.6,29.83,ESE,104,1.0,1.0,89,0.00,,,0.00,0,Wunderground v.1.15,2013-01-26 11:48:00,
2013-01-26 03:58:00,42.5,39.2,29.83,ESE,116,2.0,2.0,88,0.00,,,0.00,0,Wunderground v.1.15,2013-01-26 11:58:00,
2013-01-26 04:08:00,42.5,39.2,29.83,ESE,112,2.0,2.0,88,0.00,,,0.00,0,Wunderground v.1.15,2013-01-26 12:08:00,
2013-01-26 04:18:00,42.5,39.2,29.83,ESE,113,2.0,3.0,88,0.00,,,0.00,0,Wunderground v.1.15,2013-01-26 12:18:00,
2013-01-26 04:32:00,42.2,39.2,29.83,ESE,112,2.0,2.0,89,0.00,,,0.00,0,Wunderground v.1.15,2013-01-26 12:32:00,
2013-01-26 04:38:00,42.1,39.4,29.83,SE,141,1.0,2.0,90,0.00,,,0.01,0,Wunderground v.1.15,2013-01-26 12:38:00,
2013-01-26 04:48:00,41.6,39.2,29.83,East,82,2.0,3.0,91,0.08,,,0.02,0,Wunderground v.1.15,2013-01-26 12:48:00,
2013-01-26 05:03:00,41.3,38.6,29.83,East,83,3.0,3.0,90,0.05,,,0.03,0,Wunderground v.1.15,2013-01-26 13:03:00,
2013-01-26 05:08:00,41.2,38.2,29.83,East,88,2.0,3.0,89,0.05,,,0.03,0,Wunderground v.1.15,2013-01-26 13:08:00,
2013-01-26 05:18:00,41.3,38.6,29.82,ESE,123,1.0,4.0,90,0.04,,,0.04,0,Wunderground v.1.15,2013-01-26 13:18:00,
2013-01-26 05:28:00,41.2,38.8,29.82,East,93,1.0,2.0,91,0.00,,,0.04,0,Wunderground v.1.15,2013-01-26 13:28:00,
2013-01-26 05:38:00,40.9,38.8,29.82,East,96,2.0,2.0,92,0.00,,,0.05,0,Wunderground v.1.15,2013-01-26 13:38:00,
2013-01-26 05:53:00,40.8,38.9,29.83,East,88,2.0,2.0,93,0.04,,,0.07,0,Wunderground v.1.15,2013-01-26 13:53:00,
2013-01-26 05:59:00,40.8,39.2,29.83,East,99,2.0,2.0,94,0.14,,,0.08,0,Wunderground v.1.15,2013-01-26 13:59:00,
2013-01-26 06:09:00,40.6,39.0,29.83,East,96,2.0,2.0,94,0.15,,,0.10,0,Wunderground v.1.15,2013-01-26 14:09:00,
2013-01-26 06:18:00,40.6,39.0,29.83,East,80,2.0,2.0,94,0.09,,,0.11,0,Wunderground v.1.15,2013-01-26 14:18:00,
2013-01-26 06:28:00,40.6,39.0,29.83,East,82,2.0,3.0,94,0.07,,,0.12,0,Wunderground v.1.15,2013-01-26 14:28:00,
2013-01-26 06:38:00,40.6,39.0,29.83,ESE,107,2.0,2.0,94,0.00,,,0.12,0,Wunderground v.1.15,2013-01-26 14:38:00,
2013-01-26 06:48:00,40.8,39.2,29.83,East,82,2.0,6.0,94,0.00,,,0.12,0,Wunderground v.1.15,2013-01-26 14:48:00,
2013-01-26 06:58:00,40.9,39.0,29.83,SE,136,4.0,4.0,93,0.00,,,0.12,0,Wunderground v.1.15,2013-01-26 14:58:00,
2013-01-26 07:12:00,41.1,39.0,29.83,ENE,78,3.0,3.0,92,0.00,,,0.12,0,Wunderground v.1.15,2013-01-26 15:12:00,
2013-01-26 07:22:00,41.1,39.0,29.83,East,95,3.0,3.0,92,0.00,,,0.12,0,Wunderground v.1.15,2013-01-26 15:22:00,
2013-01-26 07:28:00,41.1,39.0,29.83,East,100,2.0,3.0,92,0.00,,,0.12,0,Wunderground v.1.15,2013-01-26 15:28:00,
2013-01-26 07:38:00,41.1,39.2,29.83,East,100,1.0,3.0,93,0.00,,,0.12,0,Wunderground v.1.15,2013-01-26 15:38:00,
2013-01-26 07:48:00,41.1,39.2,29.83,ESE,116,3.0,5.0,93,0.00,,,0.13,5,Wunderground v.1.15,2013-01-26 15:48:00,
2013-01-26 07:58:00,41.1,39.2,29.83,ESE,109,3.0,3.0,93,0.05,,,0.14,7,Wunderground v.1.15,2013-01-26 15:58:00,
2013-01-26 08:08:00,40.9,39.3,29.83,East,88,3.0,3.0,94,0.04,,,0.14,7,Wunderground v.1.15,2013-01-26 16:08:00,
2013-01-26 08:18:00,41.1,39.5,29.84,SE,126,3.0,3.0,94,0.04,,,0.15,9,Wunderground v.1.15,2013-01-26 16:18:00,
2013-01-26 08:29:00,41.1,39.5,29.84,SE,134,2.0,2.0,94,0.06,,,0.16,14,Wunderground v.1.15,2013-01-26 16:29:00,
2013-01-26 08:39:00,41.1,39.8,29.84,SSE,148,3.0,7.0,95,0.12,,,0.18,21,Wunderground v.1.15,2013-01-26 16:39:00,
2013-01-26 08:49:00,40.9,39.3,29.84,SSE,154,6.0,8.0,94,0.05,,,0.18,12,Wunderground v.1.15,2013-01-26 16:49:00,
2013-01-26 08:59:00,40.9,39.0,29.84,SSE,158,6.0,7.0,93,0.00,,,0.18,35,Wunderground v.1.15,2013-01-26 16:59:00,
2013-01-26 09:09:00,40.8,38.9,29.85,SSE,157,6.0,6.0,93,0.00,,,0.18,26,Wunderground v.1.15,2013-01-26 17:09:00,
2013-01-26 09:18:00,40.8,38.9,29.85,SSE,167,7.0,8.0,93,0.00,,,0.19,37,Wunderground v.1.15,2013-01-26 17:18:00,
2013-01-26 09:28:00,40.9,39.3,29.85,SE,140,4.0,6.0,94,0.00,,,0.19,37,Wunderground v.1.15,2013-01-26 17:28:00,
2013-01-26 09:38:00,41.1,39.5,29.86,SE,133,5.0,5.0,94,0.00,,,0.19,28,Wunderground v.1.15,2013-01-26 17:38:00,
2013-01-26 09:48:00,41.1,39.5,29.86,SE,141,6.0,6.0,94,0.00,,,0.20,23,Wunderground v.1.15,2013-01-26 17:48:00,
2013-01-26 09:58:00,41.3,39.4,29.86,SSE,152,7.0,7.0,93,0.00,,,0.20,48,Wunderground v.1.15,2013-01-26 17:58:00,
2013-01-26 10:08:00,41.6,40.0,29.86,ESE,107,4.0,6.0,94,0.00,,,0.21,33,Wunderground v.1.15,2013-01-26 18:08:00,
2013-01-26 10:18:00,41.6,39.7,29.86,ESE,116,4.0,6.0,93,0.00,,,0.21,23,Wunderground v.1.15,2013-01-26 18:18:00,
2013-01-26 10:28:00,41.9,39.7,29.86,SSE,154,6.0,6.0,92,0.00,,,0.21,25,Wunderground v.1.15,2013-01-26 18:28:00,
2013-01-26 10:38:00,42.1,39.7,29.87,SSE,162,6.0,7.0,91,0.00,,,0.21,49,Wunderground v.1.15,2013-01-26 18:38:00,
2013-01-26 10:48:00,42.3,39.6,29.87,SSE,160,5.0,8.0,90,0.00,,,0.21,53,Wunderground v.1.15,2013-01-26 18:48:00,
2013-01-26 10:58:00,42.5,39.5,29.87,SSE,147,6.0,6.0,89,0.00,,,0.21,42,Wunderground v.1.15,2013-01-26 18:58:00,
2013-01-26 11:08:00,42.8,39.5,29.87,SSE,151,6.0,10.0,88,0.00,,,0.21,46,Wunderground v.1.15,2013-01-26 19:08:00,
2013-01-26 11:19:00,42.9,39.3,29.87,SE,131,7.0,12.0,87,0.00,,,0.21,48,Wunderground v.1.15,2013-01-26 19:19:00,
2013-01-26 11:28:00,43.1,39.2,29.87,SSE,151,8.0,8.0,86,0.00,,,0.21,56,Wunderground v.1.15,2013-01-26 19:28:00,
2013-01-26 11:38:00,43.2,39.3,29.87,SSE,155,4.0,7.0,86,0.00,,,0.21,63,Wunderground v.1.15,2013-01-26 19:38:00,
2013-01-26 11:49:00,43.5,39.3,29.87,SSE,151,5.0,5.0,85,0.00,,,0.21,77,Wunderground v.1.15,2013-01-26 19:49:00,
2013-01-26 12:03:00,43.8,39.3,29.86,SE,124,4.0,4.0,84,0.00,,,0.21,76,Wunderground v.1.15,2013-01-26 20:03:00,
2013-01-26 12:09:00,43.9,39.1,29.86,SSE,147,4.0,4.0,83,0.00,,,0.21,76,Wunderground v.1.15,2013-01-26 20:09:00,
2013-01-26 12:17:00,44.1,39.6,29.86,ESE,106,4.0,5.0,84,0.00,,,0.21,77,Wunderground v.1.15,2013-01-26 20:17:00,
2013-01-26 12:28:00,44.1,39.3,29.86,SE,145,6.0,6.0,83,0.00,,,0.22,65,Wunderground v.1.15,2013-01-26 20:28:00,
2013-01-26 12:38:00,44.1,39.9,29.86,SSE,147,3.0,4.0,85,0.00,,,0.22,100,Wunderground v.1.15,2013-01-26 20:38:00,
2013-01-26 12:48:00,44.1,39.9,29.86,SE,127,4.0,4.0,85,0.00,,,0.23,91,Wunderground v.1.15,2013-01-26 20:48:00,
2013-01-26 12:58:00,43.9,40.0,29.86,SE,138,6.0,6.0,86,0.00,,,0.23,111,Wunderground v.1.15,2013-01-26 20:58:00,
2013-01-26 13:08:00,43.9,40.0,29.86,SE,145,5.0,6.0,86,0.00,,,0.23,113,Wunderground v.1.15,2013-01-26 21:08:00,
2013-01-26 13:22:00,44.2,40.0,29.86,SE,126,5.0,5.0,85,0.00,,,0.23,148,Wunderground v.1.15,2013-01-26 21:22:00,
2013-01-26 13:28:00,44.2,39.7,29.86,South,175,4.0,8.0,84,0.00,,,0.23,139,Wunderground v.1.15,2013-01-26 21:28:00,
2013-01-26 13:38:00,44.1,39.3,29.86,SSE,164,7.0,17.0,83,0.00,,,0.23,146,Wunderground v.1.15,2013-01-26 21:38:00,
2013-01-26 13:48:00,43.9,38.1,29.86,SE,128,7.0,7.0,80,0.00,,,0.23,143,Wunderground v.1.15,2013-01-26 21:48:00,
2013-01-26 13:58:00,43.9,38.8,29.86,SE,145,6.0,11.0,82,0.00,,,0.23,137,Wunderground v.1.15,2013-01-26 21:58:00,
2013-01-26 14:08:00,43.9,38.8,29.86,SSE,151,7.0,11.0,82,0.00,,,0.23,120,Wunderground v.1.15,2013-01-26 22:08:00,
2013-01-26 14:18:00,43.9,39.4,29.86,SSE,165,6.0,13.0,84,0.00,,,0.23,95,Wunderground v.1.15,2013-01-26 22:18:00,
2013-01-26 14:28:00,44.1,39.0,29.86,SSE,151,8.0,8.0,82,0.00,,,0.23,74,Wunderground v.1.15,2013-01-26 22:28:00,
2013-01-26 14:43:00,44.2,39.1,29.87,SSE,165,6.0,9.0,82,0.00,,,0.23,55,Wunderground v.1.15,2013-01-26 22:43:00,
2013-01-26 14:48:00,44.2,38.7,29.87,SSE,147,5.0,9.0,81,0.00,,,0.23,49,Wunderground v.1.15,2013-01-26 22:48:00,
2013-01-26 14:59:00,44.2,39.1,29.87,SE,143,6.0,6.0,82,0.00,,,0.23,46,Wunderground v.1.15,2013-01-26 22:59:00,
2013-01-26 15:09:00,44.2,38.7,29.87,SSE,147,7.0,8.0,81,0.00,,,0.24,53,Wunderground v.1.15,2013-01-26 23:09:00,
2013-01-26 15:22:00,44.1,39.0,29.88,SSE,162,6.0,6.0,82,0.00,,,0.24,86,Wunderground v.1.15,2013-01-26 23:22:00,
2013-01-26 15:28:00,44.1,38.6,29.88,SE,145,7.0,7.0,81,0.00,,,0.24,69,Wunderground v.1.15,2013-01-26 23:28:00,
2013-01-26 15:42:00,44.2,39.4,29.88,SSE,148,4.0,6.0,83,0.00,,,0.24,58,Wunderground v.1.15,2013-01-26 23:42:00,
2013-01-26 15:52:00,44.2,38.7,29.88,SSE,152,4.0,4.0,81,0.00,,,0.24,30,Wunderground v.1.15,2013-01-26 23:52:00,
2013-01-26 15:58:00,44.3,38.8,29.88,SSE,157,3.0,4.0,81,0.00,,,0.24,26,Wunderground v.1.15,2013-01-26 23:58:00,
2013-01-26 16:08:00,44.3,38.8,29.88,SSE,161,3.0,8.0,81,0.00,,,0.24,33,Wunderground v.1.15,2013-01-27 00:08:00,
2013-01-26 16:18:00,44.3,38.8,29.88,South,171,2.0,3.0,81,0.00,,,0.24,16,Wunderground v.1.15,2013-01-27 00:18:00,
2013-01-26 16:28:00,44.3,38.8,29.88,South,181,2.0,3.0,81,0.00,,,0.24,9,Wunderground v.1.15,2013-01-27 00:28:00,
2013-01-26 16:38:00,44.5,38.7,29.88,South,172,4.0,8.0,80,0.00,,,0.24,7,Wunderground v.1.15,2013-01-27 00:38:00,
2013-01-26 16:48:00,44.3,38.5,29.89,SE,136,5.0,5.0,80,0.00,,,0.24,7,Wunderground v.1.15,2013-01-27 00:48:00,
2013-01-26 16:58:00,44.2,38.4,29.89,South,169,8.0,8.0,80,0.00,,,0.24,5,Wunderground v.1.15,2013-01-27 00:58:00,
2013-01-26 17:13:00,44.1,38.3,29.89,South,174,4.0,4.0,80,0.00,,,0.24,0,Wunderground v.1.15,2013-01-27 01:13:00,
2013-01-26 17:18:00,43.9,38.4,29.90,South,184,5.0,5.0,81,0.00,,,0.24,0,Wunderground v.1.15,2013-01-27 01:18:00,
2013-01-26 17:29:00,43.8,38.7,29.90,South,182,3.0,4.0,82,0.00,,,0.24,0,Wunderground v.1.15,2013-01-27 01:29:00,
2013-01-26 17:38:00,43.5,38.1,29.90,South,174,6.0,11.0,81,0.00,,,0.24,0,Wunderground v.1.15,2013-01-27 01:38:00,
2013-01-26 17:48:00,43.3,37.9,29.90,SSE,147,6.0,12.0,81,0.00,,,0.24,0,Wunderground v.1.15,2013-01-27 01:48:00,
2013-01-26 17:59:00,43.2,37.8,29.90,South,172,2.0,4.0,81,0.00,,,0.24,0,Wunderground v.1.15,2013-01-27 01:59:00,
2013-01-26 18:09:00,43.2,37.8,29.91,South,175,4.0,10.0,81,0.00,,,0.24,0,Wunderground v.1.15,2013-01-27 02:09:00,
2013-01-26 18:19:00,43.2,37.4,29.91,SSW,192,5.0,6.0,80,0.00,,,0.24,0,Wunderground v.1.15,2013-01-27 02:19:00,
2013-01-26 18:27:00,43.1,37.7,29.91,South,181,5.0,12.0,81,0.00,,,0.24,0,Wunderground v.1.15,2013-01-27 02:27:00,
2013-01-26 18:38:00,42.9,37.8,29.91,SSE,155,3.0,4.0,82,0.00,,,0.24,0,Wunderground v.1.15,2013-01-27 02:38:00,
2013-01-26 18:48:00,42.8,38.0,29.92,South,172,4.0,6.0,83,0.00,,,0.24,0,Wunderground v.1.15,2013-01-27 02:48:00,
2013-01-26 18:58:00,42.5,38.0,29.92,SSE,152,6.0,7.0,84,0.00,,,0.24,0,Wunderground v.1.15,2013-01-27 02:58:00,
2013-01-26 19:08:00,42.3,38.1,29.92,South,176,4.0,5.0,85,0.00,,,0.24,0,Wunderground v.1.15,2013-01-27 03:08:00,
2013-01-26 19:18:00,42.3,38.1,29.93,SE,134,4.0,7.0,85,0.00,,,0.24,0,Wunderground v.1.15,2013-01-27 03:18:00,
2013-01-26 19:28:00,42.2,37.7,29.93,SE,134,4.0,10.0,84,0.00,,,0.24,0,Wunderground v.1.15,2013-01-27 03:28:00,
2013-01-26 19:38:00,42.2,37.7,29.93,South,171,6.0,14.0,84,0.00,,,0.24,0,Wunderground v.1.15,2013-01-27 03:38:00,
2013-01-26 19:48:00,42.1,37.6,29.93,SSE,165,6.0,7.0,84,0.00,,,0.24,0,Wunderground v.1.15,2013-01-27 03:48:00,
2013-01-26 20:02:00,42.1,37.9,29.93,ESE,103,4.0,5.0,85,0.00,,,0.24,0,Wunderground v.1.15,2013-01-27 04:02:00,
2013-01-26 20:08:00,42.1,37.9,29.93,South,174,5.0,5.0,85,0.00,,,0.24,0,Wunderground v.1.15,2013-01-27 04:08:00,
2013-01-26 20:18:00,42.1,37.6,29.94,SSE,157,4.0,10.0,84,0.00,,,0.24,0,Wunderground v.1.15,2013-01-27 04:18:00,
2013-01-26 20:28:00,42.1,37.9,29.94,SSE,158,3.0,6.0,85,0.00,,,0.24,0,Wunderground v.1.15,2013-01-27 04:28:00,
2013-01-26 20:38:00,41.9,37.7,29.94,SSE,168,2.0,3.0,85,0.00,,,0.24,0,Wunderground v.1.15,2013-01-27 04:38:00,
2013-01-26 20:48:00,41.9,37.7,29.94,SSE,152,3.0,4.0,85,0.00,,,0.24,0,Wunderground v.1.15,2013-01-27 04:48:00,
2013-01-26 20:58:00,41.8,37.3,29.94,South,184,5.0,5.0,84,0.00,,,0.24,0,Wunderground v.1.15,2013-01-27 04:58:00,
2013-01-26 21:03:00,41.8,37.6,29.94,SSW,203,5.0,5.0,85,0.00,,,0.24,0,Wunderground v.1.15,2013-01-27 05:03:00,
2013-01-26 21:09:00,41.8,37.6,29.94,SSW,203,1.0,5.0,85,0.00,,,0.24,0,Wunderground v.1.15,2013-01-27 05:09:00,
2013-01-26 21:19:00,41.6,37.1,29.94,South,189,2.0,3.0,84,0.00,,,0.24,0,Wunderground v.1.15,2013-01-27 05:19:00,
2013-01-26 21:23:00,41.6,37.1,29.94,SSE,164,3.0,3.0,84,0.00,,,0.24,0,Wunderground v.1.15,2013-01-27 05:23:00,
2013-01-26 21:29:00,41.6,37.1,29.94,SW,226,4.0,7.0,84,0.00,,,0.24,0,Wunderground v.1.15,2013-01-27 05:29:00,
2013-01-26 21:39:00,41.6,37.4,29.95,South,184,2.0,4.0,85,0.00,,,0.24,0,Wunderground v.1.15,2013-01-27 05:39:00,
2013-01-26 21:49:00,41.8,37.6,29.95,SSW,192,2.0,2.0,85,0.00,,,0.24,0,Wunderground v.1.15,2013-01-27 05:49:00,
2013-01-26 21:59:00,41.6,37.4,29.95,SSW,192,1.0,2.0,85,0.00,,,0.24,0,Wunderground v.1.15,2013-01-27 05:59:00,
2013-01-26 22:13:00,41.6,37.4,29.95,South,182,1.0,2.0,85,0.00,,,0.24,0,Wunderground v.1.15,2013-01-27 06:13:00,
2013-01-26 22:19:00,41.6,37.4,29.95,SSW,203,2.0,2.0,85,0.00,,,0.24,0,Wunderground v.1.15,2013-01-27 06:19:00,
2013-01-26 22:28:00,41.6,37.4,29.95,SSW,192,1.0,1.0,85,0.00,,,0.24,0,Wunderground v.1.15,2013-01-27 06:28:00,
2013-01-26 22:38:00,41.5,37.6,29.96,SSW,193,3.0,3.0,86,0.00,,,0.24,0,Wunderground v.1.15,2013-01-27 06:38:00,
2013-01-26 22:48:00,41.5,37.9,29.97,South,172,2.0,2.0,87,0.00,,,0.24,0,Wunderground v.1.15,2013-01-27 06:48:00,
2013-01-26 22:58:00,41.5,37.9,29.97,SSW,198,2.0,2.0,87,0.00,,,0.24,0,Wunderground v.1.15,2013-01-27 06:58:00,
2013-01-26 23:08:00,41.3,38.0,29.97,SSW,198,1.0,2.0,88,0.00,,,0.24,0,Wunderground v.1.15,2013-01-27 07:08:00,
2013-01-26 23:13:00,41.3,38.0,29.97,SSW,199,1.0,1.0,88,0.00,,,0.24,0,Wunderground v.1.15,2013-01-27 07:13:00,
2013-01-26 23:28:00,41.2,37.6,29.97,SSE,165,2.0,2.0,87,0.00,,,0.24,0,Wunderground v.1.15,2013-01-27 07:28:00,
2013-01-26 23:38:00,41.1,37.5,29.97,South,179,2.0,7.0,87,0.00,,,0.24,0,Wunderground v.1.15,2013-01-27 07:38:00,
2013-01-26 23:48:00,41.1,37.5,29.97,SSW,196,2.0,2.0,87,0.00,,,0.24,0,Wunderground v.1.15,2013-01-27 07:48:00,
2013-01-26 23:58:00,41.1,37.5,29.97,South,171,1.0,1.0,87,0.00,,,0.24,0,Wunderground v.1.15,2013-01-27 07:58:00,